Home > Weather > Milwaukee > Past weeks

Flag for U.S.A. Weather for the Past 2 Weeks in Milwaukee, Wisconsin, U.S.A.

Now
32 °F

Light snow. Overcast.


Feels Like: 29 °F
Forecast: 24 / 31 °F
Wind: 3 mph from Southwest

Location: Milwaukee / Timmerman

Current Time: Feb 8, 2016 at 4:30:52 AM

Latest Report: Feb 8, 2016 at 3:55 AM


Visibility: 7 mi

Pressure: 29.58 "Hg

Humidity: 87%

Dew point: 28 °F

Location of MilwaukeeLocation

Historic Weather in Milwaukee — Graph

°F

Milwaukee Temperature Yesterday

Maximum temperature yesterday: 43 °F (at 12:45 PM)
Minimum temperature yesterday: 32 °F (at 12:15 AM)
Average temperature yesterday: 35 °F

High & Low Weather Summary for the Past Weeks

 TemperatureHumidityPressure
High45 °F (Jan 30, 2:45 PM)100% (Jan 25, 8:15 PM)30.34 "Hg (Jan 25, 8:15 PM)
Low12 °F (Jan 29, 6:45 AM)39% (Jan 29, 12:45 PM)29.44 "Hg (Feb 3, 1:35 AM)
Average30 °F77%29.87 "Hg
* Reported Jan 24 3:15 AM — Feb 8 3:15 AM, Milwaukee, Weather by CustomWeather, © 2016

Note: Actual official high and low records may vary slightly from our data, if they occured in-between our weather recording intervals... More about our weather records

Advertising

Milwaukee Weather History for the Previous 24 Hours

 ConditionsComfort  
Time TempWeatherWind HumidityBarometerVisibility
3:15 AM
Mon, Feb 8
32 °FMostly cloudy.5 mph80%29.58 "Hg10 mi
2:55 AM32 °FOvercast.3 mph80%29.59 "Hg10 mi
2:35 AM32 °FOvercast.3 mph80%29.59 "Hg10 mi
2:15 AM32 °FOvercast.6 mph80%29.60 "Hg10 mi
1:55 AM32 °FOvercast.5 mph80%29.61 "Hg10 mi
1:35 AM32 °FPassing clouds.5 mph80%29.61 "Hg10 mi
1:15 AM32 °FPassing clouds.6 mph80%29.61 "Hg10 mi
12:55 AM32 °FPassing clouds.6 mph80%29.61 "Hg10 mi
12:35 AM32 °FClear.7 mph80%29.62 "Hg10 mi
12:15 AM32 °FClear.7 mph80%29.63 "Hg10 mi
11:55 PM
Sun, Feb 7
32 °FClear.7 mph80%29.63 "Hg10 mi
11:35 PM32 °FClear.7 mph80%29.63 "Hg10 mi
11:15 PM32 °FClear.7 mph80%29.63 "Hg10 mi
10:55 PM32 °FClear.9 mph80%29.64 "Hg10 mi
10:15 PM32 °FClear.8 mph80%29.65 "Hg10 mi
9:15 PM34 °FClear.9 mph75%29.66 "Hg10 mi
8:55 PM34 °FClear.12 mph75%29.67 "Hg10 mi
8:15 PM34 °FClear.10 mph70%29.67 "Hg10 mi
4:45 PM41 °FSunny.9 mph57%29.68 "Hg10 mi
3:45 PM43 °FSunny.16 mph57%29.66 "Hg10 mi
2:45 PM43 °FSunny.13 mph57%29.66 "Hg10 mi
1:45 PM43 °FSunny.17 mph57%29.64 "Hg10 mi
12:45 PM43 °FSunny.12 mph57%29.65 "Hg10 mi
11:45 AM41 °FSunny.16 mph61%29.68 "Hg10 mi
10:45 AM39 °FScattered clouds.16 mph61%29.70 "Hg10 mi
9:45 AM39 °FSunny.15 mph61%29.71 "Hg10 mi
8:45 AM37 °FChilly.8 mph65%29.74 "HgN/A
7:45 AM37 °FBroken clouds.15 mph65%29.75 "Hg10 mi
6:45 AM37 °FMostly cloudy.12 mph65%29.77 "Hg10 mi
6:15 AM36 °FPassing clouds.12 mph75%29.78 "Hg10 mi
5:55 AM36 °FPassing clouds.12 mph75%29.79 "Hg10 mi
5:35 AM36 °FPassing clouds.10 mph75%29.80 "Hg10 mi
5:15 AM36 °FPassing clouds.10 mph75%29.80 "Hg10 mi
4:55 AM34 °FPassing clouds.13 mph81%29.81 "Hg10 mi
4:35 AM34 °FPassing clouds.10 mph81%29.82 "Hg10 mi
4:15 AM34 °FPassing clouds.10 mph81%29.84 "Hg10 mi
Weather by CustomWeather, © 2016

See weather overviewHow to use our weather pages